Saint Bonnet de Bellac- Haute Vienne - France
Donnes mto: lundi, 06/08/2012
Date Horaire Temp. E. Hum. E. P.atmo. Pluie Vent Direction Direction Ensoleilleme Solaire P. de rose Temp au vent Rafales
06/08/2012 00:00 13,9 C 91 % 1013,1 hPa 0,0 mm 3,2 km/h (1 Bft) S-SO 202 0 min 0 W/m 12,5 C 13,9 C 6,5 km/h (2 Bft)
06/08/2012 00:10 14,0 C 91 % 1013,2 hPa 0,0 mm 6,1 km/h (2 Bft) S-SO 202 0 min 0 W/m 12,6 C 14,0 C 8,3 km/h (2 Bft)
06/08/2012 00:20 14,0 C 91 % 1013,2 hPa 0,0 mm 3,6 km/h (1 Bft) SO 225 0 min 0 W/m 12,6 C 14,0 C 3,6 km/h (1 Bft)
06/08/2012 00:30 14,1 C 91 % 1013,2 hPa 0,0 mm 3,6 km/h (1 Bft) S-SO 202 0 min 0 W/m 12,7 C 14,1 C 7,2 km/h (2 Bft)
06/08/2012 00:40 14,1 C 91 % 1013,1 hPa 0,0 mm 6,5 km/h (2 Bft) S 180 0 min 0 W/m 12,7 C 14,1 C 11,9 km/h (2 Bft)
06/08/2012 00:50 14,2 C 91 % 1013,3 hPa 0,0 mm 5,8 km/h (2 Bft) SO 225 0 min 0 W/m 12,8 C 14,2 C 10,4 km/h (2 Bft)
06/08/2012 01:00 14,2 C 91 % 1013,4 hPa 0,0 mm 2,9 km/h (1 Bft) S-SO 202 0 min 0 W/m 12,8 C 14,2 C 6,5 km/h (2 Bft)
06/08/2012 01:10 14,1 C 91 % 1013,5 hPa 0,0 mm 4,0 km/h (1 Bft) SO 225 0 min 0 W/m 12,7 C 14,1 C 7,2 km/h (2 Bft)
06/08/2012 01:20 14,1 C 91 % 1013,6 hPa 0,0 mm 6,5 km/h (2 Bft) S-SO 202 0 min 0 W/m 12,7 C 14,1 C 6,5 km/h (2 Bft)
06/08/2012 01:30 14,0 C 91 % 1013,6 hPa 0,0 mm 5,4 km/h (2 Bft) S-SE 157 0 min 0 W/m 12,6 C 14,0 C 10,4 km/h (2 Bft)
06/08/2012 01:40 14,0 C 91 % 1013,7 hPa 0,0 mm 2,9 km/h (1 Bft) S-SO 202 0 min 0 W/m 12,6 C 14,0 C 6,8 km/h (2 Bft)
06/08/2012 01:50 14,0 C 91 % 1013,8 hPa 0,0 mm 5,0 km/h (1 Bft) S-SO 202 0 min 0 W/m 12,6 C 14,0 C 5,0 km/h (1 Bft)
06/08/2012 02:00 13,9 C 92 % 1013,6 hPa 0,0 mm 3,2 km/h (1 Bft) SO 225 0 min 0 W/m 12,6 C 13,9 C 6,1 km/h (2 Bft)
06/08/2012 02:10 14,1 C 92 % 1013,5 hPa 0,0 mm 5,0 km/h (1 Bft) SO 225 0 min 0 W/m 12,8 C 14,1 C 5,0 km/h (1 Bft)
06/08/2012 02:20 14,1 C 92 % 1013,4 hPa 0,0 mm 4,0 km/h (1 Bft) SO 225 0 min 0 W/m 12,8 C 14,1 C 6,8 km/h (2 Bft)
06/08/2012 02:30 14,1 C 92 % 1013,4 hPa 0,0 mm 6,5 km/h (2 Bft) S-SO 202 0 min 0 W/m 12,8 C 14,1 C 8,3 km/h (2 Bft)
06/08/2012 02:40 14,0 C 92 % 1013,4 hPa 0,0 mm 6,8 km/h (2 Bft) S-SO 202 0 min 0 W/m 12,7 C 14,0 C 11,9 km/h (2 Bft)
06/08/2012 02:50 14,2 C 92 % 1013,4 hPa 0,0 mm 8,3 km/h (2 Bft) S-SO 202 0 min 0 W/m 12,9 C 14,2 C 15,8 km/h (3 Bft)
06/08/2012 03:02 14,3 C 92 % 1013,6 hPa 0,0 mm 2,2 km/h (1 Bft) SO 225 0 min 0 W/m 13,0 C 14,3 C 3,6 km/h (1 Bft)
06/08/2012 03:10 14,3 C 92 % 1013,6 hPa 0,0 mm 5,0 km/h (1 Bft) S-SO 202 0 min 0 W/m 13,0 C 14,3 C 8,3 km/h (2 Bft)
06/08/2012 03:20 14,3 C 92 % 1013,7 hPa 0,0 mm 1,8 km/h (1 Bft) O-SO 247 0 min 0 W/m 13,0 C 14,3 C 4,3 km/h (1 Bft)
06/08/2012 03:30 14,4 C 92 % 1013,7 hPa 0,0 mm 2,9 km/h (1 Bft) SO 225 0 min 0 W/m 13,1 C 14,4 C 6,1 km/h (2 Bft)
06/08/2012 03:40 14,5 C 92 % 1013,7 hPa 0,0 mm 5,4 km/h (2 Bft) S-SO 202 0 min 0 W/m 13,2 C 14,5 C 11,2 km/h (2 Bft)
06/08/2012 03:50 14,6 C 92 % 1013,8 hPa 0,0 mm 5,4 km/h (2 Bft) SO 225 0 min 0 W/m 13,3 C 14,6 C 5,4 km/h (2 Bft)
06/08/2012 04:00 14,6 C 91 % 1013,8 hPa 0,0 mm 7,9 km/h (2 Bft) S 180 0 min 0 W/m 13,1 C 14,6 C 9,0 km/h (2 Bft)
06/08/2012 04:10 14,8 C 91 % 1013,9 hPa 0,0 mm 5,0 km/h (1 Bft) S-SO 202 0 min 0 W/m 13,3 C 14,8 C 8,6 km/h (2 Bft)
06/08/2012 04:20 14,8 C 91 % 1013,9 hPa 0,0 mm 6,8 km/h (2 Bft) SO 225 0 min 0 W/m 13,3 C 14,8 C 6,8 km/h (2 Bft)
06/08/2012 04:30 14,8 C 91 % 1013,7 hPa 0,0 mm 5,0 km/h (1 Bft) SO 225 0 min 0 W/m 13,3 C 14,8 C 5,0 km/h (1 Bft)
06/08/2012 04:40 14,8 C 91 % 1013,7 hPa 0,0 mm 4,7 km/h (1 Bft) SO 225 0 min 0 W/m 13,3 C 14,8 C 9,4 km/h (2 Bft)
06/08/2012 04:50 14,8 C 91 % 1013,6 hPa 0,0 mm 6,8 km/h (2 Bft) O-SO 247 0 min 0 W/m 13,3 C 14,8 C 7,6 km/h (2 Bft)
06/08/2012 05:00 14,8 C 91 % 1013,6 hPa 0,0 mm 1,8 km/h (1 Bft) S 180 0 min 0 W/m 13,3 C 14,8 C 6,1 km/h (2 Bft)
06/08/2012 05:10 14,8 C 91 % 1013,5 hPa 0,0 mm 6,1 km/h (2 Bft) S 180 0 min 0 W/m 13,3 C 14,8 C 10,4 km/h (2 Bft)
06/08/2012 05:20 14,8 C 91 % 1013,6 hPa 0,0 mm 6,5 km/h (2 Bft) SO 225 0 min 0 W/m 13,3 C 14,8 C 12,6 km/h (3 Bft)
06/08/2012 05:30 14,7 C 91 % 1013,5 hPa 0,0 mm 4,3 km/h (1 Bft) S-SO 202 0 min 0 W/m 13,2 C 14,7 C 10,8 km/h (2 Bft)
06/08/2012 05:40 14,6 C 91 % 1013,6 hPa 0,0 mm 4,3 km/h (1 Bft) S 180 0 min 0 W/m 13,1 C 14,6 C 9,7 km/h (2 Bft)
06/08/2012 05:50 14,6 C 91 % 1013,5 hPa 0,0 mm 2,2 km/h (1 Bft) SO 225 0 min 0 W/m 13,1 C 14,6 C 8,3 km/h (2 Bft)
06/08/2012 06:00 14,6 C 91 % 1013,5 hPa 0,0 mm 5,4 km/h (2 Bft) S 180 0 min 0 W/m 13,1 C 14,6 C 10,4 km/h (2 Bft)
06/08/2012 06:10 14,6 C 91 % 1013,6 hPa 0,0 mm 3,2 km/h (1 Bft) SO 225 0 min 0 W/m 13,1 C 14,6 C 4,0 km/h (1 Bft)
06/08/2012 06:20 14,6 C 91 % 1013,8 hPa 0,0 mm 2,2 km/h (1 Bft) SO 225 0 min 0 W/m 13,1 C 14,6 C 2,9 km/h (1 Bft)
06/08/2012 06:30 14,6 C 91 % 1013,9 hPa 0,0 mm 6,1 km/h (2 Bft) S-SO 202 0 min 0 W/m 13,1 C 14,6 C 6,1 km/h (2 Bft)
06/08/2012 06:40 14,6 C 91 % 1014,1 hPa 0,0 mm 3,2 km/h (1 Bft) SO 225 0 min 0 W/m 13,1 C 14,6 C 4,3 km/h (1 Bft)
06/08/2012 06:50 14,6 C 91 % 1014,0 hPa 0,0 mm 5,4 km/h (2 Bft) SO 225 0 min 0 W/m 13,1 C 14,6 C 8,6 km/h (2 Bft)
06/08/2012 07:00 14,6 C 91 % 1014,1 hPa 0,0 mm 2,9 km/h (1 Bft) SO 225 0 min 0 W/m 13,1 C 14,6 C 4,7 km/h (1 Bft)
06/08/2012 07:10 14,5 C 91 % 1014,1 hPa 0,0 mm 3,6 km/h (1 Bft) S-SO 202 0 min 0 W/m 13,0 C 14,5 C 6,1 km/h (2 Bft)
06/08/2012 07:20 14,4 C 91 % 1014,4 hPa 0,0 mm 1,8 km/h (1 Bft) SO 225 0 min 0 W/m 12,9 C 14,4 C 4,3 km/h (1 Bft)
06/08/2012 07:30 14,4 C 91 % 1014,3 hPa 0,0 mm 6,8 km/h (2 Bft) S-SO 202 0 min 0 W/m 12,9 C 14,4 C 9,7 km/h (2 Bft)
06/08/2012 07:40 14,4 C 91 % 1014,3 hPa 0,0 mm 4,0 km/h (1 Bft) SO 225 0 min 0 W/m 12,9 C 14,4 C 4,0 km/h (1 Bft)
06/08/2012 07:50 14,4 C 91 % 1014,5 hPa 0,0 mm 4,3 km/h (1 Bft) SO 225 0 min 0 W/m 12,9 C 14,4 C 7,6 km/h (2 Bft)
06/08/2012 08:00 14,5 C 92 % 1014,6 hPa 0,0 mm 2,2 km/h (1 Bft) S-SO 202 0 min 0 W/m 13,2 C 14,5 C 3,6 km/h (1 Bft)
06/08/2012 08:10 14,8 C 91 % 1014,8 hPa 0,1 mm 6,1 km/h (2 Bft) SO 225 0 min 0 W/m 13,3 C 14,8 C 10,4 km/h (2 Bft)
06/08/2012 08:20 15,1 C 91 % 1014,9 hPa 0,0 mm 6,5 km/h (2 Bft) S 180 0 min 0 W/m 13,6 C 15,1 C 9,4 km/h (2 Bft)
06/08/2012 08:30 15,3 C 91 % 1015,0 hPa 0,0 mm 4,7 km/h (1 Bft) S-SO 202 0 min 0 W/m 13,8 C 15,3 C 4,7 km/h (1 Bft)
06/08/2012 08:40 15,3 C 91 % 1015,0 hPa 0,0 mm 4,0 km/h (1 Bft) SO 225 0 min 0 W/m 13,8 C 15,3 C 6,5 km/h (2 Bft)
06/08/2012 08:50 15,3 C 91 % 1015,2 hPa 0,0 mm 3,2 km/h (1 Bft) SO 225 0 min 0 W/m 13,8 C 15,3 C 8,6 km/h (2 Bft)
06/08/2012 09:00 15,3 C 91 % 1015,5 hPa 0,0 mm 1,4 km/h (1 Bft) S-SO 202 0 min 0 W/m 13,8 C 15,3 C 4,0 km/h (1 Bft)
06/08/2012 09:10 15,3 C 90 % 1015,7 hPa 0,0 mm 5,8 km/h (2 Bft) SO 225 0 min 0 W/m 13,7 C 15,3 C 8,6 km/h (2 Bft)
06/08/2012 09:20 15,4 C 90 % 1015,7 hPa 0,0 mm 2,9 km/h (1 Bft) SO 225 0 min 0 W/m 13,8 C 15,4 C 6,1 km/h (2 Bft)
06/08/2012 09:30 15,6 C 91 % 1015,7 hPa 0,0 mm 2,5 km/h (1 Bft) S 180 0 min 0 W/m 14,1 C 15,6 C 4,0 km/h (1 Bft)
06/08/2012 09:40 16,3 C 90 % 1015,7 hPa 0,0 mm 6,1 km/h (2 Bft) SO 225 0 min 0 W/m 14,7 C 16,3 C 10,4 km/h (2 Bft)
06/08/2012 09:50 16,8 C 87 % 1015,8 hPa 0,0 mm 6,8 km/h (2 Bft) SO 225 0 min 0 W/m 14,6 C 16,8 C 10,8 km/h (2 Bft)
06/08/2012 10:00 17,1 C 86 % 1015,9 hPa 0,0 mm 6,8 km/h (2 Bft) SO 225 0 min 0 W/m 14,7 C 17,1 C 9,7 km/h (2 Bft)
06/08/2012 10:10 17,1 C 85 % 1016,0 hPa 0,0 mm 7,6 km/h (2 Bft) S-SO 202 0 min 0 W/m 14,6 C 17,1 C 10,1 km/h (2 Bft)
06/08/2012 10:20 17,2 C 85 % 1016,1 hPa 0,0 mm 8,3 km/h (2 Bft) O 270 0 min 0 W/m 14,7 C 17,2 C 11,9 km/h (2 Bft)
06/08/2012 10:30 17,3 C 84 % 1016,2 hPa 0,0 mm 2,5 km/h (1 Bft) S-SO 202 0 min 0 W/m 14,6 C 17,3 C 9,0 km/h (2 Bft)
06/08/2012 10:40 17,3 C 84 % 1016,2 hPa 0,0 mm 1,8 km/h (1 Bft) O-SO 247 0 min 0 W/m 14,6 C 17,3 C 3,2 km/h (1 Bft)
06/08/2012 10:50 17,3 C 83 % 1016,3 hPa 0,0 mm 6,1 km/h (2 Bft) SO 225 0 min 0 W/m 14,4 C 17,3 C 10,8 km/h (2 Bft)
06/08/2012 11:00 17,3 C 83 % 1016,3 hPa 0,0 mm 1,1 km/h (1 Bft) S-SO 202 0 min 0 W/m 14,4 C 17,3 C 4,3 km/h (1 Bft)
06/08/2012 11:10 17,8 C 82 % 1016,4 hPa 0,0 mm 9,7 km/h (2 Bft) S-SO 202 0 min 0 W/m 14,7 C 17,8 C 16,2 km/h (3 Bft)
06/08/2012 11:20 18,1 C 80 % 1016,4 hPa 0,0 mm 5,4 km/h (2 Bft) SO 225 0 min 0 W/m 14,6 C 18,1 C 8,3 km/h (2 Bft)
06/08/2012 11:30 18,2 C 79 % 1016,5 hPa 0,0 mm 2,5 km/h (1 Bft) S-SO 202 0 min 0 W/m 14,5 C 18,2 C 7,2 km/h (2 Bft)
06/08/2012 11:40 18,7 C 77 % 1016,5 hPa 0,0 mm 6,5 km/h (2 Bft) SO 225 0 min 0 W/m 14,6 C 18,7 C 7,6 km/h (2 Bft)
06/08/2012 11:50 18,9 C 74 % 1016,5 hPa 0,0 mm 10,4 km/h (2 Bft) O-SO 247 0 min 0 W/m 14,2 C 18,9 C 10,4 km/h (2 Bft)
06/08/2012 12:00 19,3 C 73 % 1016,6 hPa 0,0 mm 6,1 km/h (2 Bft) S-SO 202 0 min 0 W/m 14,3 C 19,3 C 8,6 km/h (2 Bft)
06/08/2012 12:10 19,5 C 70 % 1016,6 hPa 0,0 mm 13,0 km/h (3 Bft) SO 225 0 min 0 W/m 13,9 C 19,5 C 20,9 km/h (4 Bft)
06/08/2012 12:20 19,6 C 70 % 1016,7 hPa 0,0 mm 9,0 km/h (2 Bft) O 270 0 min 0 W/m 14,0 C 19,6 C 11,9 km/h (2 Bft)
06/08/2012 12:30 20,4 C 70 % 1016,8 hPa 0,0 mm 7,6 km/h (2 Bft) O 270 0 min 0 W/m 14,7 C 20,4 C 7,6 km/h (2 Bft)
06/08/2012 12:40 20,6 C 66 % 1016,9 hPa 0,0 mm 7,9 km/h (2 Bft) S-SO 202 0 min 0 W/m 14,0 C 20,6 C 12,6 km/h (3 Bft)
06/08/2012 12:50 20,4 C 67 % 1016,9 hPa 0,0 mm 9,0 km/h (2 Bft) S-SO 202 0 min 0 W/m 14,1 C 20,4 C 11,2 km/h (2 Bft)
06/08/2012 13:00 20,1 C 68 % 1017,0 hPa 0,0 mm 6,5 km/h (2 Bft) SO 225 0 min 0 W/m 14,0 C 20,1 C 8,3 km/h (2 Bft)
06/08/2012 13:10 19,8 C 69 % 1017,1 hPa 0,0 mm 4,7 km/h (1 Bft) SO 225 0 min 0 W/m 13,9 C 19,8 C 9,4 km/h (2 Bft)
06/08/2012 13:20 19,9 C 69 % 1017,1 hPa 0,0 mm 7,2 km/h (2 Bft) O-SO 247 0 min 0 W/m 14,0 C 19,9 C 7,2 km/h (2 Bft)
06/08/2012 13:30 20,4 C 68 % 1017,1 hPa 0,0 mm 7,9 km/h (2 Bft) S-SO 202 0 min 0 W/m 14,3 C 20,4 C 11,9 km/h (2 Bft)
06/08/2012 13:40 20,5 C 67 % 1017,2 hPa 0,0 mm 7,6 km/h (2 Bft) SO 225 0 min 0 W/m 14,2 C 20,5 C 12,2 km/h (2 Bft)
06/08/2012 13:50 20,6 C 66 % 1017,2 hPa 0,0 mm 8,3 km/h (2 Bft) S-SO 202 0 min 0 W/m 14,0 C 20,6 C 14,0 km/h (3 Bft)
06/08/2012 14:00 20,4 C 67 % 1017,3 hPa 0,0 mm 1,8 km/h (1 Bft) O 270 0 min 0 W/m 14,1 C 20,4 C 1,8 km/h (1 Bft)
06/08/2012 14:10 20,0 C 71 % 1017,3 hPa 0,1 mm 0,0 km/h (0 Bft) O 270 0 min 0 W/m 14,6 C 20,0 C 0,0 km/h (0 Bft)
06/08/2012 14:20 19,2 C 74 % 1017,4 hPa 0,4 mm 0,0 km/h (0 Bft) O-SO 247 0 min 0 W/m 14,4 C 19,2 C 0,0 km/h (0 Bft)
06/08/2012 14:30 18,8 C 77 % 1017,6 hPa 0,0 mm 1,4 km/h (1 Bft) O-SO 247 0 min 0 W/m 14,7 C 18,8 C 4,0 km/h (1 Bft)
06/08/2012 14:40 18,8 C 79 % 1017,5 hPa 0,0 mm 0,0 km/h (0 Bft) SO 225 0 min 0 W/m 15,1 C 18,8 C 0,0 km/h (0 Bft)
06/08/2012 14:50 19,4 C 77 % 1017,5 hPa 0,0 mm 7,6 km/h (2 Bft) S-SO 202 0 min 0 W/m 15,3 C 19,4 C 7,6 km/h (2 Bft)
06/08/2012 15:00 20,2 C 75 % 1017,5 hPa 0,0 mm 1,8 km/h (1 Bft) O-SO 247 0 min 0 W/m 15,6 C 20,2 C 6,5 km/h (2 Bft)
06/08/2012 15:10 20,9 C 70 % 1017,4 hPa 0,0 mm 3,2 km/h (1 Bft) S-SO 202 0 min 0 W/m 15,2 C 20,9 C 7,6 km/h (2 Bft)
06/08/2012 15:20 21,3 C 65 % 1017,4 hPa 0,0 mm 6,1 km/h (2 Bft) SO 225 0 min 0 W/m 14,4 C 21,3 C 10,1 km/h (2 Bft)
06/08/2012 15:30 21,0 C 66 % 1017,6 hPa 0,0 mm 7,2 km/h (2 Bft) S-SO 202 0 min 0 W/m 14,4 C 21,0 C 9,7 km/h (2 Bft)
06/08/2012 15:40 20,2 C 68 % 1017,9 hPa 0,0 mm 8,6 km/h (2 Bft) SO 225 0 min 0 W/m 14,1 C 20,2 C 8,6 km/h (2 Bft)
06/08/2012 15:50 19,8 C 68 % 1017,9 hPa 0,0 mm 5,0 km/h (1 Bft) O-SO 247 0 min 0 W/m 13,7 C 19,8 C 7,2 km/h (2 Bft)
06/08/2012 16:00 19,8 C 67 % 1017,9 hPa 0,0 mm 6,1 km/h (2 Bft) SO 225 0 min 0 W/m 13,5 C 19,8 C 11,9 km/h (2 Bft)
06/08/2012 16:10 20,4 C 64 % 1017,9 hPa 0,0 mm 6,8 km/h (2 Bft) O 270 0 min 0 W/m 13,4 C 20,4 C 9,7 km/h (2 Bft)
06/08/2012 16:20 21,1 C 61 % 1017,9 hPa 0,0 mm 5,8 km/h (2 Bft) O-SO 247 0 min 0 W/m 13,3 C 21,1 C 13,3 km/h (3 Bft)
06/08/2012 16:30 21,6 C 59 % 1017,8 hPa 0,0 mm 10,4 km/h (2 Bft) O-SO 247 0 min 0 W/m 13,2 C 21,6 C 10,4 km/h (2 Bft)
06/08/2012 16:40 21,9 C 60 % 1018,0 hPa 0,0 mm 5,0 km/h (1 Bft) S-SO 202 0 min 0 W/m 13,8 C 21,9 C 7,9 km/h (2 Bft)
06/08/2012 16:50 22,3 C 58 % 1018,0 hPa 0,0 mm 6,8 km/h (2 Bft) O-NO 292 0 min 0 W/m 13,6 C 22,3 C 14,0 km/h (3 Bft)
06/08/2012 17:00 22,5 C 57 % 1018,1 hPa 0,0 mm 5,8 km/h (2 Bft) O-NO 292 0 min 0 W/m 13,5 C 22,5 C 11,9 km/h (2 Bft)
06/08/2012 17:10 22,3 C 58 % 1018,2 hPa 0,0 mm 1,8 km/h (1 Bft) O-SO 247 0 min 0 W/m 13,6 C 22,3 C 4,0 km/h (1 Bft)
06/08/2012 17:20 22,2 C 58 % 1018,3 hPa 0,0 mm 3,2 km/h (1 Bft) O 270 0 min 0 W/m 13,5 C 22,2 C 6,8 km/h (2 Bft)
06/08/2012 17:30 22,3 C 59 % 1018,4 hPa 0,0 mm 4,7 km/h (1 Bft) O-SO 247 0 min 0 W/m 13,9 C 22,3 C 4,7 km/h (1 Bft)
06/08/2012 17:40 22,5 C 58 % 1018,3 hPa 0,0 mm 1,8 km/h (1 Bft) O-SO 247 0 min 0 W/m 13,8 C 22,5 C 4,0 km/h (1 Bft)
06/08/2012 17:50 22,7 C 57 % 1018,5 hPa 0,0 mm 9,4 km/h (2 Bft) O-SO 247 0 min 0 W/m 13,7 C 22,7 C 13,3 km/h (3 Bft)
06/08/2012 18:00 22,4 C 58 % 1018,4 hPa 0,0 mm 5,0 km/h (1 Bft) S 180 0 min 0 W/m 13,7 C 22,4 C 16,2 km/h (3 Bft)
06/08/2012 18:10 22,4 C 58 % 1018,4 hPa 0,0 mm 7,6 km/h (2 Bft) O-NO 292 0 min 0 W/m 13,7 C 22,4 C 10,8 km/h (2 Bft)
06/08/2012 18:20 22,5 C 58 % 1018,4 hPa 0,0 mm 1,4 km/h (1 Bft) SO 225 0 min 0 W/m 13,8 C 22,5 C 3,2 km/h (1 Bft)
06/08/2012 18:30 22,5 C 57 % 1018,4 hPa 0,0 mm 6,1 km/h (2 Bft) S-SO 202 0 min 0 W/m 13,5 C 22,5 C 10,1 km/h (2 Bft)
06/08/2012 18:40 22,5 C 58 % 1018,3 hPa 0,0 mm 6,5 km/h (2 Bft) SO 225 0 min 0 W/m 13,8 C 22,5 C 8,3 km/h (2 Bft)
06/08/2012 18:50 22,4 C 57 % 1018,5 hPa 0,0 mm 5,4 km/h (2 Bft) O 270 0 min 0 W/m 13,5 C 22,4 C 14,4 km/h (3 Bft)
06/08/2012 19:00 22,2 C 57 % 1018,7 hPa 0,0 mm 11,9 km/h (2 Bft) S-SO 202 0 min 0 W/m 13,3 C 22,2 C 13,0 km/h (3 Bft)
06/08/2012 19:10 21,8 C 59 % 1018,6 hPa 0,0 mm 3,6 km/h (1 Bft) O-SO 247 0 min 0 W/m 13,4 C 21,8 C 6,1 km/h (2 Bft)
06/08/2012 19:20 21,8 C 58 % 1018,8 hPa 0,0 mm 2,9 km/h (1 Bft) S-SO 202 0 min 0 W/m 13,2 C 21,8 C 7,6 km/h (2 Bft)
06/08/2012 19:30 21,9 C 59 % 1018,8 hPa 0,0 mm 5,8 km/h (2 Bft) N-NO 337 0 min 0 W/m 13,5 C 21,9 C 11,2 km/h (2 Bft)
06/08/2012 19:40 22,0 C 60 % 1018,9 hPa 0,0 mm 6,5 km/h (2 Bft) NO 315 0 min 0 W/m 13,9 C 22,0 C 12,6 km/h (3 Bft)
06/08/2012 19:50 21,8 C 60 % 1019,0 hPa 0,0 mm 5,0 km/h (1 Bft) SO 225 0 min 0 W/m 13,7 C 21,8 C 7,2 km/h (2 Bft)
06/08/2012 20:00 21,4 C 60 % 1019,1 hPa 0,0 mm 0,7 km/h (0 Bft) O-SO 247 0 min 0 W/m 13,3 C 21,4 C 3,6 km/h (1 Bft)
06/08/2012 20:10 21,2 C 60 % 1019,2 hPa 0,0 mm 5,4 km/h (2 Bft) O-SO 247 0 min 0 W/m 13,1 C 21,2 C 9,7 km/h (2 Bft)
06/08/2012 20:20 20,6 C 61 % 1019,2 hPa 0,0 mm 1,1 km/h (1 Bft) O-SO 247 0 min 0 W/m 12,8 C 20,6 C 1,1 km/h (1 Bft)
06/08/2012 20:30 19,9 C 63 % 1019,4 hPa 0,0 mm 2,9 km/h (1 Bft) O 270 0 min 0 W/m 12,6 C 19,9 C 6,8 km/h (2 Bft)
06/08/2012 20:40 19,3 C 65 % 1019,5 hPa 0,0 mm 2,2 km/h (1 Bft) O 270 0 min 0 W/m 12,6 C 19,3 C 4,3 km/h (1 Bft)
06/08/2012 20:50 18,8 C 66 % 1019,7 hPa 0,0 mm 1,8 km/h (1 Bft) O 270 0 min 0 W/m 12,3 C 18,8 C 1,8 km/h (1 Bft)
06/08/2012 21:00 18,3 C 68 % 1019,8 hPa 0,0 mm 1,8 km/h (1 Bft) O-SO 247 0 min 0 W/m 12,3 C 18,3 C 4,0 km/h (1 Bft)
06/08/2012 21:10 18,0 C 70 % 1019,8 hPa 0,0 mm 2,2 km/h (1 Bft) O-SO 247 0 min 0 W/m 12,4 C 18,0 C 4,3 km/h (1 Bft)
06/08/2012 21:20 17,8 C 71 % 1020,0 hPa 0,0 mm 0,7 km/h (0 Bft) O 270 0 min 0 W/m 12,5 C 17,8 C 3,6 km/h (1 Bft)
06/08/2012 21:30 17,6 C 72 % 1020,1 hPa 0,0 mm 1,4 km/h (1 Bft) S-SO 202 0 min 0 W/m 12,5 C 17,6 C 4,0 km/h (1 Bft)
06/08/2012 21:40 17,2 C 72 % 1020,2 hPa 0,0 mm 0,0 km/h (0 Bft) O 270 0 min 0 W/m 12,1 C 17,2 C 0,0 km/h (0 Bft)
06/08/2012 21:50 16,9 C 72 % 1020,4 hPa 0,0 mm 0,0 km/h (0 Bft) SO 225 0 min 0 W/m 11,8 C 16,9 C 0,0 km/h (0 Bft)
06/08/2012 22:00 16,5 C 73 % 1020,5 hPa 0,0 mm 0,4 km/h (0 Bft) O 270 0 min 0 W/m 11,6 C 16,5 C 3,2 km/h (1 Bft)
06/08/2012 22:10 16,2 C 74 % 1020,7 hPa 0,0 mm 0,0 km/h (0 Bft) S 180 0 min 0 W/m 11,6 C 16,2 C 0,0 km/h (0 Bft)
06/08/2012 22:20 15,8 C 74 % 1020,7 hPa 0,0 mm 0,4 km/h (0 Bft) SO 225 0 min 0 W/m 11,2 C 15,8 C 4,0 km/h (1 Bft)
06/08/2012 22:30 15,6 C 75 % 1020,8 hPa 0,0 mm 0,4 km/h (0 Bft) S 180 0 min 0 W/m 11,2 C 15,6 C 3,2 km/h (1 Bft)
06/08/2012 22:40 15,3 C 76 % 1020,9 hPa 0,0 mm 1,1 km/h (1 Bft) S-SO 202 0 min 0 W/m 11,1 C 15,3 C 2,9 km/h (1 Bft)
06/08/2012 22:50 15,1 C 76 % 1020,9 hPa 0,0 mm 0,0 km/h (0 Bft) O-SO 247 0 min 0 W/m 10,9 C 15,1 C 0,0 km/h (0 Bft)
06/08/2012 23:00 14,8 C 78 % 1021,0 hPa 0,0 mm 0,0 km/h (0 Bft) SO 225 0 min 0 W/m 11,0 C 14,8 C 0,0 km/h (0 Bft)
06/08/2012 23:10 14,5 C 79 % 1021,1 hPa 0,0 mm 0,0 km/h (0 Bft) SO 225 0 min 0 W/m 10,9 C 14,5 C 0,0 km/h (0 Bft)
_ Min-Heure 02:00 19:00 00:40 - 23:10 - - - - 22:50 02:00 23:10
Minimum _ 13,9 C 57 % 1013,1 hPa - 0,0 km/h (0 Bft) - - - - 10,9 C 13,9 C 0,0 km/h (0 Bft)
_ Max-Heure 17:50 08:00 23:10 14:20 12:10 - - 23:10 23:10 15:00 17:50 12:10
Maximum _ 22,7 C 92 % 1021,1 hPa 0,4 mm 13,0 km/h
SO (3 Bft)
- - 0 min 0 W/m 15,6 C 22,7 C 20,9 km/h
SO (4 Bft)
Moyenne _ 17,5 C 78 % 1016,4 hPa #0,6 mm 4,6 km/h (1 Bft) SO - #0 min. 0 W/m 13,4 C 17,5 C 7,5 km/h (2 Bft)
Saint Bonnet de Bellac- Haute Vienne - France